Tracking 30292 objects as of 28-Apr-2025
HD Live streaming from Space Station
objects crossing your sky now

OBJECT A

Track OBJECT A now!
10-day predictions


NORAD ID: 52716
Int'l Code: 2022-056A
Perigee: 873.4 km
Apogee: 899.2 km
Inclination: 86.0 °
Period: 102.5 minutes
Semi major axis: 7257 km
RCS: Unknown
Launch date: May 20, 2022
Source: People's Republic of China (PRC)
Launch site: Jiuquan Satellite Launch Center, China (JSC)

Note: This is a ROCKET BODY
Your satellite tracking list
Your tracking list is empty




NASA's NSSDC Master Catalog

Two Line Element Set (TLE):
1 52716U 22056A   25118.52698271  .00000446  00000-0  26929-3 0  9998
2 52716  86.0089 206.6178 0017714 220.4396 139.5467 14.04235349150691
Source of the keplerian elements: AFSPC